User: anonymous   Login
Location: Pompeys Pillar
(45.9913°N, 107.9528°W)
Time: 22:18:57
(UTC+00:00)
Language:

Vanguard 2 - Orbit

View from above orbital plane
View from above orbital plane
View from above satellite
View from above satellite

Ground track
Ground track

The orbit data is extracted from the following two-line orbital elements,

1    11U 59001A   22148.04839932  .00000455  00000-0  22589-3 0  9995
2    11  32.8771 270.6950 1467126 298.1971  47.8124 11.86125052700975
Epoch (UTC): 28 May 2022 01:09:41
Eccentricity: 0.1467126
inclination: 32.8771°
perigee height: 552 km
apogee height: 2935 km
right ascension of ascending node: 270.6950°
argument of perigee: 298.1971°
revolutions per day: 11.86125052
mean anomaly at epoch: 47.8124°
orbit number at epoch: 70097

The dashed part of the orbit path shows where the satellite is in the earth's shadow,  

DLR